Zurück zum Katalog

BEIJING 3B

AktivWissenschaftSSO
NORAD 53587·PAYLOAD·🇨🇳 China

Gestartet Aug 24, 2022 von Taiyuan Satellite Launch Center

Loading…

Nächste Überflüge (nächste 24 Stunden)

TLE

AktuellSource: Space-Track

Epoche: Sep 14, 2026, 15:24 UTC

1 53587U 22103A   26257.64192664  .00000851  00000-0  10042-3 0  9990
2 53587  97.7950 333.4541 0026487 115.6465 244.7492 14.87038488220383

Verfolge BEIJING 3B in Echtzeit mit AllMySat

Download on the App Store